Location: Home
(42.5358°N, 72.7383°W)
Time: 05:48:10
(UTC-05:00)

Courier 1B Rocket - Pass Details

Date: 01 December 2021
Orbit: 920 x 1202 km, 28.2° (Epoch: 25 January)

Event Time Altitude Azimuth Distance (km) Brightness Sun altitude
Rises 02:37:19 0° 249° (WSW) 3,548 - -47.8°
Reaches altitude 10° 02:40:35 10° 233° (SW) 2,616 - -47.2°
Maximum altitude 02:44:57 20° 188° (S) 2,030 - -46.4°
Drops below altitude 10° 02:49:26 10° 144° (SE) 2,692 - -45.6°
Exits shadow 02:50:46 - 136° (SE) 3,054 7.8 -45.4°
Sets 02:52:52 0° 128° (SE) 3,685 8.4 -45.0°
